Time,TemperatureF,DewpointF,PressureIn,WindDirection,WindDirectionDegrees,WindSpeedMPH,WindSpeedGustMPH,Humidity,HourlyPrecipIn,Conditions,Clouds,dailyrainin,SoftwareType,DateUTC
2013-09-28 00:04:00,70.3,70.0,29.98,SE,130,0.0,0.0,98,0.00,,,0.00,weatherlink.com 1.10,2013-09-28 05:04:00,
2013-09-28 00:34:00,70.3,70.0,29.98,SE,130,0.0,0.0,98,0.00,,,0.00,weatherlink.com 1.10,2013-09-28 05:34:00,
2013-09-28 00:49:00,70.4,70.0,29.98,SE,130,0.0,0.0,98,0.00,,,0.00,weatherlink.com 1.10,2013-09-28 05:49:00,
2013-09-28 01:04:00,70.4,70.0,29.98,SE,130,0.0,0.0,98,0.00,,,0.00,weatherlink.com 1.10,2013-09-28 06:04:00,
2013-09-28 01:19:00,70.3,70.0,29.98,SE,130,0.0,0.0,98,0.00,,,0.00,weatherlink.com 1.10,2013-09-28 06:19:00,
2013-09-28 01:34:00,70.0,69.0,29.98,SE,130,0.0,0.0,98,0.00,,,0.00,weatherlink.com 1.10,2013-09-28 06:34:00,
2013-09-28 01:49:00,69.7,69.0,29.98,SE,130,0.0,0.0,98,0.00,,,0.00,weatherlink.com 1.10,2013-09-28 06:49:00,
2013-09-28 02:04:00,69.6,69.0,29.98,SE,130,0.0,0.0,98,0.00,,,0.00,weatherlink.com 1.10,2013-09-28 07:04:00,
2013-09-28 02:19:00,69.4,69.0,29.98,SE,130,0.0,0.0,98,0.00,,,0.00,weatherlink.com 1.10,2013-09-28 07:19:00,
2013-09-28 02:34:00,69.2,69.0,29.98,SE,130,0.0,0.0,98,0.00,,,0.00,weatherlink.com 1.10,2013-09-28 07:34:00,
2013-09-28 02:49:00,69.1,69.0,29.98,SE,130,0.0,0.0,98,0.00,,,0.00,weatherlink.com 1.10,2013-09-28 07:49:00,
2013-09-28 03:04:00,68.7,68.0,29.98,SE,130,0.0,0.0,98,0.00,,,0.00,weatherlink.com 1.10,2013-09-28 08:04:00,
2013-09-28 03:19:00,68.4,68.0,29.98,SE,130,0.0,0.0,98,0.00,,,0.00,weatherlink.com 1.10,2013-09-28 08:19:00,
2013-09-28 03:34:00,68.0,68.0,29.97,SE,130,0.0,0.0,98,0.00,,,0.00,weatherlink.com 1.10,2013-09-28 08:34:00,
2013-09-28 03:49:00,67.7,67.0,29.97,SE,130,0.0,0.0,98,0.00,,,0.00,weatherlink.com 1.10,2013-09-28 08:49:00,
2013-09-28 04:04:00,67.4,67.0,29.97,SE,130,0.0,1.0,99,0.00,,,0.00,weatherlink.com 1.10,2013-09-28 09:04:00,
2013-09-28 04:19:00,67.3,67.0,29.97,SE,130,0.0,0.0,99,0.00,,,0.00,weatherlink.com 1.10,2013-09-28 09:19:00,
2013-09-28 04:34:00,67.1,67.0,29.97,SE,130,0.0,0.0,99,0.00,,,0.00,weatherlink.com 1.10,2013-09-28 09:34:00,
2013-09-28 04:49:00,67.0,67.0,29.98,SE,130,0.0,0.0,99,0.00,,,0.00,weatherlink.com 1.10,2013-09-28 09:49:00,
2013-09-28 05:04:00,66.6,66.0,29.98,SE,130,0.0,0.0,98,0.00,,,0.00,weatherlink.com 1.10,2013-09-28 10:04:00,
2013-09-28 05:19:00,66.3,66.0,29.98,SE,130,0.0,0.0,99,0.00,,,0.00,weatherlink.com 1.10,2013-09-28 10:19:00,
2013-09-28 05:34:00,66.0,66.0,29.98,SE,130,0.0,0.0,99,0.00,,,0.00,weatherlink.com 1.10,2013-09-28 10:34:00,
2013-09-28 05:49:00,65.9,66.0,29.99,SE,130,0.0,0.0,99,0.00,,,0.00,weatherlink.com 1.10,2013-09-28 10:49:00,
2013-09-28 06:04:00,65.6,65.0,30.00,SE,130,0.0,1.0,99,0.00,,,0.00,weatherlink.com 1.10,2013-09-28 11:04:00,
2013-09-28 06:20:00,65.5,65.0,30.00,SE,130,0.0,1.0,99,0.00,,,0.00,weatherlink.com 1.10,2013-09-28 11:20:00,
2013-09-28 06:34:00,65.4,65.0,30.00,SE,130,0.0,0.0,99,0.00,,,0.00,weatherlink.com 1.10,2013-09-28 11:34:00,
2013-09-28 06:49:00,65.4,65.0,30.01,SE,130,0.0,1.0,99,0.00,,,0.00,weatherlink.com 1.10,2013-09-28 11:49:00,
2013-09-28 07:04:00,65.3,65.0,30.01,SE,130,0.0,1.0,99,0.00,,,0.00,weatherlink.com 1.10,2013-09-28 12:04:00,
2013-09-28 07:19:00,65.4,65.0,30.01,SE,130,0.0,0.0,99,0.00,,,0.00,weatherlink.com 1.10,2013-09-28 12:19:00,
2013-09-28 07:34:00,65.8,66.0,30.02,SE,130,0.0,0.0,100,0.00,,,0.00,weatherlink.com 1.10,2013-09-28 12:34:00,
2013-09-28 07:49:00,66.8,67.0,30.02,ESE,123,0.0,1.0,100,0.00,,,0.00,weatherlink.com 1.10,2013-09-28 12:49:00,
2013-09-28 08:04:00,68.0,68.0,30.02,ENE,69,0.0,3.0,100,0.00,,,0.00,weatherlink.com 1.10,2013-09-28 13:04:00,
2013-09-28 08:19:00,68.8,69.0,30.03,ESE,109,0.0,2.0,100,0.00,,,0.00,weatherlink.com 1.10,2013-09-28 13:19:00,
2013-09-28 08:34:00,69.5,70.0,30.03,SE,130,0.0,6.0,100,0.00,,,0.00,weatherlink.com 1.10,2013-09-28 13:34:00,
2013-09-28 08:49:00,70.7,71.0,30.04,East,96,1.0,4.0,100,0.00,,,0.00,weatherlink.com 1.10,2013-09-28 13:49:00,
2013-09-28 09:05:00,72.7,71.0,30.04,East,96,1.0,4.0,94,0.00,,,0.00,weatherlink.com 1.10,2013-09-28 14:05:00,
2013-09-28 09:20:00,74.9,72.0,30.04,ESE,122,2.0,5.0,90,0.00,,,0.00,weatherlink.com 1.10,2013-09-28 14:20:00,
2013-09-28 09:35:00,76.3,72.0,30.05,SE,132,3.0,5.0,87,0.00,,,0.00,weatherlink.com 1.10,2013-09-28 14:35:00,
2013-09-28 09:50:00,78.5,74.0,30.05,SSE,155,2.0,4.0,85,0.00,,,0.00,weatherlink.com 1.10,2013-09-28 14:50:00,
2013-09-28 10:05:00,79.4,74.0,30.05,South,173,3.0,5.0,83,0.00,,,0.00,weatherlink.com 1.10,2013-09-28 15:05:00,
2013-09-28 10:20:00,80.2,73.0,30.05,East,86,5.0,7.0,79,0.00,,,0.00,weatherlink.com 1.10,2013-09-28 15:20:00,
2013-09-28 10:35:00,80.7,74.0,30.05,SE,125,1.0,5.0,80,0.00,,,0.00,weatherlink.com 1.10,2013-09-28 15:35:00,
2013-09-28 10:50:00,81.7,74.0,30.05,SSE,153,2.0,8.0,78,0.00,,,0.00,weatherlink.com 1.10,2013-09-28 15:50:00,
2013-09-28 11:05:00,82.2,74.0,30.05,SE,144,1.0,9.0,75,0.00,,,0.00,weatherlink.com 1.10,2013-09-28 16:05:00,
2013-09-28 11:20:00,82.8,74.0,30.05,ESE,120,5.0,10.0,75,0.00,,,0.00,weatherlink.com 1.10,2013-09-28 16:20:00,
2013-09-28 11:35:00,83.2,73.0,30.05,East,94,6.0,9.0,72,0.00,,,0.00,weatherlink.com 1.10,2013-09-28 16:35:00,
2013-09-28 11:50:00,83.9,72.0,30.04,SE,138,1.0,5.0,68,0.00,,,0.00,weatherlink.com 1.10,2013-09-28 16:50:00,
2013-09-28 12:05:00,84.6,73.0,30.04,SW,229,0.0,5.0,68,0.00,,,0.00,weatherlink.com 1.10,2013-09-28 17:05:00,
2013-09-28 12:20:00,84.7,72.0,30.04,South,190,1.0,7.0,65,0.00,,,0.00,weatherlink.com 1.10,2013-09-28 17:20:00,
2013-09-28 12:35:00,85.0,71.0,30.03,SW,218,0.0,6.0,63,0.00,,,0.00,weatherlink.com 1.10,2013-09-28 17:35:00,
2013-09-28 12:50:00,85.1,70.0,30.03,East,89,2.0,10.0,60,0.00,,,0.00,weatherlink.com 1.10,2013-09-28 17:50:00,
2013-09-28 13:05:00,85.4,70.0,30.02,SW,214,1.0,5.0,61,0.00,,,0.00,weatherlink.com 1.10,2013-09-28 18:05:00,
2013-09-28 13:20:00,86.1,69.0,30.02,East,85,3.0,6.0,56,0.00,,,0.00,weatherlink.com 1.10,2013-09-28 18:20:00,
2013-09-28 13:35:00,86.2,68.0,30.01,SE,130,0.0,3.0,55,0.00,,,0.00,weatherlink.com 1.10,2013-09-28 18:35:00,
2013-09-28 13:50:00,85.2,68.0,30.01,ENE,63,0.0,5.0,57,0.00,,,0.00,weatherlink.com 1.10,2013-09-28 18:50:00,
2013-09-28 14:05:00,85.6,68.0,30.00,SSE,159,4.0,6.0,56,0.00,,,0.00,weatherlink.com 1.10,2013-09-28 19:05:00,
2013-09-28 14:20:00,87.0,68.0,29.99,ESE,116,4.0,5.0,54,0.00,,,0.00,weatherlink.com 1.10,2013-09-28 19:20:00,
2013-09-28 14:35:00,86.3,69.0,29.99,NE,50,1.0,6.0,57,0.00,,,0.00,weatherlink.com 1.10,2013-09-28 19:35:00,
2013-09-28 14:50:00,85.9,68.0,29.98,SW,232,0.0,3.0,56,0.00,,,0.00,weatherlink.com 1.10,2013-09-28 19:50:00,
2013-09-28 15:05:00,87.2,70.0,29.98,ESE,111,4.0,5.0,57,0.00,,,0.00,weatherlink.com 1.10,2013-09-28 20:05:00,
2013-09-28 15:20:00,86.7,69.0,29.98,NE,50,1.0,7.0,56,0.00,,,0.00,weatherlink.com 1.10,2013-09-28 20:20:00,
2013-09-28 15:35:00,85.0,69.0,29.97,ENE,59,1.0,2.0,58,0.00,,,0.00,weatherlink.com 1.10,2013-09-28 20:35:00,
2013-09-28 15:50:00,86.9,69.0,29.97,ENE,65,0.0,7.0,56,0.00,,,0.00,weatherlink.com 1.10,2013-09-28 20:50:00,
2013-09-28 16:05:00,87.1,68.0,29.97,ESE,110,2.0,4.0,54,0.00,,,0.00,weatherlink.com 1.10,2013-09-28 21:05:00,
2013-09-28 16:20:00,87.3,69.0,29.97,East,91,3.0,7.0,54,0.00,,,0.00,weatherlink.com 1.10,2013-09-28 21:20:00,
2013-09-28 16:35:00,88.0,67.0,29.96,SE,134,0.0,5.0,50,0.00,,,0.00,weatherlink.com 1.10,2013-09-28 21:35:00,
2013-09-28 16:50:00,87.7,68.0,29.96,SE,143,2.0,5.0,53,0.00,,,0.00,weatherlink.com 1.10,2013-09-28 21:50:00,
2013-09-28 17:06:00,87.5,69.0,29.96,East,92,1.0,8.0,54,0.00,,,0.00,weatherlink.com 1.10,2013-09-28 22:06:00,
2013-09-28 17:20:00,87.1,70.0,29.96,NE,53,0.0,5.0,58,0.00,,,0.00,weatherlink.com 1.10,2013-09-28 22:20:00,
2013-09-28 17:36:00,85.3,71.0,29.96,NE,53,0.0,0.0,63,0.00,,,0.00,weatherlink.com 1.10,2013-09-28 22:36:00,
2013-09-28 17:51:00,83.0,72.0,29.96,NE,53,0.0,0.0,69,0.00,,,0.00,weatherlink.com 1.10,2013-09-28 22:51:00,
2013-09-28 18:06:00,81.8,73.0,29.96,NE,53,0.0,1.0,74,0.00,,,0.00,weatherlink.com 1.10,2013-09-28 23:06:00,
2013-09-28 18:21:00,80.9,73.0,29.96,NE,53,0.0,0.0,78,0.00,,,0.00,weatherlink.com 1.10,2013-09-28 23:21:00,
2013-09-28 18:36:00,79.5,73.0,29.96,ENE,60,0.0,2.0,79,0.00,,,0.00,weatherlink.com 1.10,2013-09-28 23:36:00,
2013-09-28 18:51:00,77.9,72.0,29.97,ENE,60,0.0,1.0,81,0.00,,,0.00,weatherlink.com 1.10,2013-09-28 23:51:00,
2013-09-28 19:06:00,76.4,72.0,29.96,ENE,60,0.0,0.0,85,0.00,,,0.00,weatherlink.com 1.10,2013-09-29 00:06:00,
2013-09-28 19:21:00,75.1,71.0,29.97,ENE,60,0.0,0.0,87,0.00,,,0.00,weatherlink.com 1.10,2013-09-29 00:21:00,
2013-09-28 19:36:00,74.1,71.0,29.98,ENE,60,0.0,0.0,89,0.00,,,0.00,weatherlink.com 1.10,2013-09-29 00:36:00,
2013-09-28 19:52:00,73.2,71.0,29.99,ENE,60,0.0,0.0,91,0.00,,,0.00,weatherlink.com 1.10,2013-09-29 00:52:00,
2013-09-28 20:06:00,72.5,70.0,30.00,ENE,60,0.0,0.0,92,0.00,,,0.00,weatherlink.com 1.10,2013-09-29 01:06:00,
2013-09-28 20:21:00,71.9,70.0,30.00,ENE,60,0.0,0.0,93,0.00,,,0.00,weatherlink.com 1.10,2013-09-29 01:21:00,
2013-09-28 20:36:00,71.3,70.0,30.00,ENE,60,0.0,0.0,94,0.00,,,0.00,weatherlink.com 1.10,2013-09-29 01:36:00,
2013-09-28 20:51:00,70.9,69.0,30.01,ENE,60,0.0,0.0,94,0.00,,,0.00,weatherlink.com 1.10,2013-09-29 01:51:00,
2013-09-28 21:06:00,70.6,69.0,30.01,ENE,60,0.0,0.0,95,0.00,,,0.00,weatherlink.com 1.10,2013-09-29 02:06:00,
2013-09-28 21:21:00,70.2,69.0,30.02,ENE,60,0.0,0.0,95,0.00,,,0.00,weatherlink.com 1.10,2013-09-29 02:21:00,
2013-09-28 21:36:00,69.8,69.0,30.02,ENE,60,0.0,0.0,96,0.00,,,0.00,weatherlink.com 1.10,2013-09-29 02:36:00,
2013-09-28 21:51:00,69.5,68.0,30.02,ENE,60,0.0,0.0,96,0.00,,,0.00,weatherlink.com 1.10,2013-09-29 02:51:00,
2013-09-28 22:06:00,69.1,68.0,30.03,ENE,60,0.0,0.0,96,0.00,,,0.00,weatherlink.com 1.10,2013-09-29 03:06:00,
2013-09-28 22:21:00,68.8,68.0,30.03,ENE,60,0.0,0.0,96,0.00,,,0.00,weatherlink.com 1.10,2013-09-29 03:21:00,
2013-09-28 22:36:00,68.6,68.0,30.03,ENE,60,0.0,1.0,97,0.00,,,0.00,weatherlink.com 1.10,2013-09-29 03:36:00,
2013-09-28 22:51:00,68.4,68.0,30.02,ENE,60,0.0,0.0,97,0.00,,,0.00,weatherlink.com 1.10,2013-09-29 03:51:00,
2013-09-28 23:06:00,68.2,67.0,30.02,ENE,60,0.0,0.0,97,0.00,,,0.00,weatherlink.com 1.10,2013-09-29 04:06:00,
2013-09-28 23:21:00,68.0,67.0,30.02,ENE,60,0.0,0.0,97,0.00,,,0.00,weatherlink.com 1.10,2013-09-29 04:21:00,
2013-09-28 23:36:00,67.7,67.0,30.02,ENE,60,0.0,0.0,97,0.00,,,0.00,weatherlink.com 1.10,2013-09-29 04:36:00,
2013-09-28 23:51:00,67.6,67.0,30.01,ENE,60,0.0,0.0,98,0.00,,,0.00,weatherlink.com 1.10,2013-09-29 04:51:00,